Location: Unspecified
(0.0000°N, 0.0000°E)
Time: 09:13:05
(UTC+00:00)

Vanguard 2 Rocket - Pass Details

Date: 14 December 2018
Orbit: 554 x 3327 km, 32.9° (Epoch: 18 January)

Event Time Altitude Azimuth Distance (km) Brightness Sun altitude
Rises 03:12:22 0° 246° (WSW) 4,761 - -36.7°
Reaches altitude 10° 03:16:24 10° 252° (WSW) 3,311 - -35.8°
Maximum altitude 03:23:26 40° 319° (NW) 1,258 - -34.3°
Drops below altitude 10° 03:27:57 10° 31° (NNE) 2,114 - -33.3°
Sets 03:30:01 0° 39° (NE) 2,879 - -32.8°
